Torna al catalogo

ARIANE 42P+3 DEB

AttivoHEO
NORAD 48418·DEBRIS·🇫🇷 France

Lanciato Apr 20, 1996 da Guiana Space Centre

Loading…

Prossimi Passaggi (prossime 24 ore)

TLE

AggiornatoSource: Space-Track

Epoca: Sep 14, 2026, 09:01 UTC

1 48418U 96022C   26257.37603930  .00003011  00000-0  32607-2 0  9992
2 48418   6.1642 216.3015 6232689 250.1366  35.5963  3.60452039148289

Traccia ARIANE 42P+3 DEB in tempo reale con AllMySat

Download on the App Store